Regional Weather Roundup
Issued by NWS

Home | Current Version | Previous Version | Graphics & Text | Print | Product List | Glossary On
Versions: 1 2 3 4 5 6 7 8 9 10 11 12 13 14 15 16 17 18 19 20 21 22 23 24 25 26 27 28 29 30 31 32 33 34 35 36 37 38 39 40 41 42 43 44 45 46 47 48 49 50
000
ASUS43 KFSD 272210
RWRSD

WEATHER ROUNDUP FOR SOUTH DAKOTA
NATIONAL WEATHER SERVICE SIOUX FALLS SD
400 PM CST SAT DEC 27 2014

NOTE: "FAIR" INDICATES FEW OR NO CLOUDS BELOW 12,000 FEET WITH NO
SIGNIFICANT WEATHER AND/OR OBSTRUCTIONS TO VISIBILITY.


SDZ001>005-009-010-012>017-272300-
NORTHWEST AND NORTH CENTRAL SOUTH DAKOTA

CITY           SKY/WX    TMP DP  RH WIND       PRES   REMARKS
BUFFALO          N/A     30  16  56 W17       29.93R WCI  18
FAITH            N/A     26  16  65 SW13      30.00S WCI  15
MOBRIDGE       PTCLDY    27  20  75 SW5       30.00S WCI  22
$$

SDZ012>016-024>037-041>051-057-063-072>074-272300-
SOUTHWEST AND SOUTH CENTRAL SOUTH DAKOTA

CITY           SKY/WX    TMP DP  RH WIND       PRES   REMARKS
RAPID CTY ARPT MOSUNNY   21  14  74 CALM      30.02F
PIERRE         CLEAR     24  18  77 SW9       30.07F WCI  14
CUSTER         MOSUNNY   21   8  57 W12       29.92S WCI   9
ELLSWORTH AFB  MOSUNNY   24  15  67 SW6       30.01S WCI  17
PHILIP         CLEAR     25  16  68 W10       30.07F WCI  15
PINE RIDGE     SUNNY     24  12  60 SW9       30.06S WCI  14
SPEARFISH      FAIR      27  14  59 W9        29.99R WCI  17
WINNER         FAIR      24  15  68 SW7       30.11F WCI  16
$$

SDZ004>011-016>023-039-040-272300-
NORTHEAST SOUTH DAKOTA

CITY           SKY/WX    TMP DP  RH WIND       PRES   REMARKS
ABERDEEN       CLEAR     27  19  72 SW12      30.07S WCI  17
WATERTOWN      CLEAR     16  11  80 SW10      30.05F WCI   4
SISSETON         N/A     23  16  74 W8        30.05S WCI  14
$$

SDZ017-020-022-023-036>040-048>070-272300-
SOUTHEAST SOUTH DAKOTA

CITY           SKY/WX    TMP DP  RH WIND       PRES   REMARKS
SIOUX FALLS    CLEAR     16   9  74 W5        30.14S WCI   9
HURON          MOCLDY    20  13  74 SW6       30.11F WCI  12
CHAMBERLAIN    CLEAR     20  14  76 CALM      30.12S
MITCHELL       CLEAR     20  13  74 SW10      30.15S WCI   9
YANKTON        CLEAR     21  12  68 SW5       30.19S WCI  15
$$

ABBREVIATIONS USED IN REMARKS
   TC - TEMPERATURE IN CELSIUS
  WCI - WIND CHILL INDEX
   HX - HEAT INDEX
  VSB - VISIBILITY




USA.gov is the U.S. government's official web portal to all federal, state and local government web resources and services.